TimeCDT,TemperatureF,Dew PointF,Humidity,Sea Level PressureIn,VisibilityMPH,Wind Direction,Wind SpeedMPH,Gust SpeedMPH,PrecipitationIn,Events,Conditions,WindDirDegrees,DateUTC
12:53 AM,48.0,30.9,52,30.10,10.0,South,9.2,-,N/A,,Clear,190,2012-10-11 05:53:00
1:53 AM,46.9,32.0,56,30.09,10.0,South,9.2,-,N/A,,Clear,190,2012-10-11 06:53:00
2:53 AM,46.0,32.0,58,30.09,10.0,South,6.9,-,N/A,,Clear,180,2012-10-11 07:53:00
3:53 AM,46.0,33.1,61,30.07,10.0,South,8.1,-,N/A,,Clear,190,2012-10-11 08:53:00
4:53 AM,44.1,33.1,65,30.06,10.0,SSE,6.9,-,N/A,,Clear,160,2012-10-11 09:53:00
5:53 AM,43.0,32.0,65,30.06,10.0,South,5.8,-,N/A,,Clear,170,2012-10-11 10:53:00
6:53 AM,39.0,30.9,73,30.06,10.0,SSE,4.6,-,N/A,,Clear,150,2012-10-11 11:53:00
7:53 AM,39.9,32.0,73,30.07,7.0,South,4.6,-,N/A,,Clear,170,2012-10-11 12:53:00
8:53 AM,46.9,35.1,63,30.07,10.0,SSE,6.9,-,N/A,,Clear,150,2012-10-11 13:53:00
9:53 AM,54.0,37.0,53,30.07,10.0,South,5.8,-,N/A,,Clear,190,2012-10-11 14:53:00
10:53 AM,63.0,41.0,45,30.08,10.0,SSW,8.1,-,N/A,,Clear,210,2012-10-11 15:53:00
11:53 AM,68.0,45.0,43,30.07,10.0,SSW,10.4,-,N/A,,Clear,210,2012-10-11 16:53:00
12:53 PM,72.0,48.0,43,30.05,10.0,SW,5.8,-,N/A,,Clear,230,2012-10-11 17:53:00
1:53 PM,73.0,48.0,41,30.03,10.0,Calm,Calm,-,N/A,,Scattered Clouds,0,2012-10-11 18:53:00
2:53 PM,71.6,48.2,43,30.02,10.0,North,3.5,-,N/A,,Partly Cloudy,360,2012-10-11 19:53:00
3:53 PM,73.0,48.0,41,30.03,10.0,North,5.8,-,N/A,,Overcast,350,2012-10-11 20:53:00
4:53 PM,71.6,46.4,41,30.04,10.0,NE,4.6,-,N/A,,Overcast,40,2012-10-11 21:53:00
5:53 PM,66.9,41.0,39,30.07,10.0,NNE,13.8,23.0,N/A,,Overcast,20,2012-10-11 22:53:00
6:53 PM,64.9,41.0,42,30.10,10.0,North,16.1,19.6,N/A,,Overcast,10,2012-10-11 23:53:00
7:53 PM,59.0,33.8,39,30.14,10.0,NNE,15.0,25.3,N/A,,Overcast,20,2012-10-12 00:53:00
8:53 PM,55.9,35.1,45,30.20,10.0,NNE,15.0,20.7,N/A,,Overcast,20,2012-10-12 01:53:00
9:53 PM,54.0,30.9,41,30.23,10.0,NNE,16.1,24.2,N/A,,Overcast,30,2012-10-12 02:53:00
10:53 PM,53.1,30.9,43,30.26,10.0,NE,12.7,20.7,N/A,,Overcast,40,2012-10-12 03:53:00
11:53 PM,51.1,28.9,43,30.29,10.0,NNE,15.0,21.9,N/A,,Overcast,30,2012-10-12 04:53:00